Regional Weather Roundup
Issued by NWS

Home | Current Version | Previous Version | Graphics & Text | Print | Product List | Glossary On
Versions: 1 2 3 4 5 6 7 8 9 10 11 12 13 14 15 16 17 18 19 20 21 22 23 24 25 26 27 28 29 30 31 32 33 34 35 36 37 38 39 40 41 42 43 44 45 46 47 48 49 50
000
ASUS43 KOAX 242202
RWRNE

WEATHER ROUNDUP FOR NEBRASKA
NATIONAL WEATHER SERVICE OMAHA NE
500 PM CDT SUN JUL 24 2016

NOTES: SATELLITE DATA IS BEING USED TO AUGMENT CLOUD COVER ABOVE
       12000 FEET.
       "FAIR" INDICATES FEW OR NO CLOUDS BELOW 12,000 FEET WITH NO
       SIGNIFICANT WEATHER AND/OR OBSTRUCTIONS TO VISIBILITY.

  * THESE STATIONS DO NOT REPORT WEATHER SUCH AS RAIN...SNOW OR FOG.

NEZ001>004-019>022-054>056-242300-
NEBRASKA PANHANDLE

CITY           SKY/WX    TMP DP  RH WIND       PRES   REMARKS
SCOTTSBLUFF    LGT RAIN  77  55  46 E14G26    30.09F
ALLIANCE       CLOUDY    77  51  40 SE10      30.15R
CHADRON        SUNNY     88  44  21 E9G20     30.10S
SIDNEY         SUNNY     83  53  35 E17G24    30.16F
$$

NEZ057>060-069>072-079>082-242300-
SOUTHWEST NEBRASKA

CITY           SKY/WX    TMP DP  RH WIND       PRES   REMARKS
NORTH PLATTE   SUNNY     85  58  39 E14G20    30.09S
IMPERIAL       SUNNY     88  55  32 E15       30.08F
LEXINGTON      SUNNY     85  56  37 E14       30.07R
MCCOOK         SUNNY     88  59  37 E17G26    30.04S
OGALLALA       SUNNY     86  51  29 E16G22    30.11S
$$

NEZ005>010-023>029-035>040-094-242300-
NORTH CENTRAL NEBRASKA

CITY           SKY/WX    TMP DP  RH WIND       PRES   REMARKS
VALENTINE      SUNNY     86  48  26 VRB5      30.10F
AINSWORTH      SUNNY     84  58  41 E6        30.10S
BROKEN BOW     CLOUDY    82  63  52 NE9G18    30.09R
O`NEILL        CLOUDY    83  55  38 E6        30.09F
ORD            CLOUDY    83  60  45 E7        30.06F
THEDFORD       SUNNY     87  54  32 E9        30.11F
$$

NEZ041-046>049-061>064-073>077-083>087-242300-
SOUTH CENTRAL NEBRASKA

CITY           SKY/WX    TMP DP  RH WIND       PRES   REMARKS
GRAND ISLAND   SUNNY     87  62  43 NE14      30.05S
AURORA         SUNNY     85  62  46 E10       30.05S
HASTINGS       SUNNY     86  63  45 E12       30.05F
HEBRON         MOSUNNY   84  61  44 NE15G21   30.04S
HOLDREGE       SUNNY     85  58  40 E20       30.05F
KEARNEY *      SUNNY     86  57  37 E15       30.06F
YORK           SUNNY     84  64  51 NE12      30.04F
$$

NEZ011>018-030>034-042>045-242300-
NORTHEAST NEBRASKA

CITY           SKY/WX    TMP DP  RH WIND       PRES   REMARKS
NORFOLK        CLOUDY    83  58  42 N12       30.05S
ALBION         CLOUDY    79  61  54 NE6       30.07S
BLAIR          PTSUNNY   83  65  54 CALM      30.03F
FREMONT        CLOUDY    86  65  50 N5        30.03S
TEKAMAH        MOSUNNY   87  63  44 N10       30.01S
WAYNE          CLOUDY    83  65  55 N6        30.05S
$$

NEZ050>053-065>068-078-088>093-242300-
SOUTHEAST NEBRASKA

CITY           SKY/WX    TMP DP  RH WIND       PRES   REMARKS
LINCOLN        CLOUDY    82  68  62 NE8       30.02F
OMAHA EPPLEY   PTSUNNY   83  67  58 N6        30.01S
BEATRICE       CLOUDY    77  67  69 NE9       30.02R
FALLS CITY     LGT RAIN  79  69  71 N8        30.00R
NEBRASKA CITY  PTSUNNY   77  68  75 NE9       30.02F
PLATTSMOUTH    CLOUDY    80  71  73 CALM      30.03F
$$

NEZ044-045-051>053-067-242300-
OMAHA AREA

CITY           SKY/WX    TMP DP  RH WIND       PRES   REMARKS
OMAHA EPPLEY   PTSUNNY   83  67  58 N6        30.01S
BLAIR          PTSUNNY   83  65  54 CALM      30.03F
FREMONT        CLOUDY    86  65  50 N5        30.03S
MILLARD        MOSUNNY   83  65  56 CALM      30.02F
OFFUTT AFB     CLOUDY    82  67  60 N6        30.01F
PLATTSMOUTH    CLOUDY    80  71  73 CALM      30.03F
WAHOO          FAIR      83  65  54 NE6       30.02F
$$




USA.gov is the U.S. government's official web portal to all federal, state and local government web resources and services.